Dewpoint
66 64 64 67 67 67 68 68 69 69 69 69 68 67 68 67 66 68 66 65 64 60
67 66 65 66 66 64 66 66 66 67 68 68 67 66 66 66 66 65 64 60 59 57
66 65 65 64 65 65 66 67 66 67 67 66 66 66 64 62 63 61 60 59 58 58
65 65 65 64 65 65 66 66 65 63 63 63 63 62 60 59 59 59 57 56 56 56
65 64 65 65 65 64 63 62 59 59 58 57 57 58 55 55 55 54 53 54 54 53
63 63 63 63 63 61 59 58 57 57 56 56 56 55 55 55 54 54 54 55 55 55
62 62 61 60 58 56 56 54 54 52 52 52 52 52 53 53 53 53 53 54 54 54
61 61 58 57 56 55 55 53 53 52 51 50 49 47 52 52 52 52 52 52 50 53
59 58 56 55 54 54 53 53 51 48 46 44 37 46 47 49 50 50 50 50 50 49
57 56 55 53 52 51 52 52 48 46 44 44 44 44 45 47 46 46 47 48 47 44
57 55 53 53 53 53 51 49 47 46 46 44 43 44 44 45 45 44 46 47 47 47
56 54 53 53 53 50 48 47 46 46 46 45 45 43 43 43 42 42 44 44 45 44
55 55 54 54 53 48 46 45 42 44 46 45 46 42 42 43 37 42 37 42 44 43
54 55 55 55 52 48 46 47 45 45 45 45 45 44 41 41 42 38 36 36 37 39
Lifted_Index
-2 -2 -2 -2 -2 -2 -2 -1 -1 -1 -1 -1 -0 0 0 0 0 -0 -0 -0 0 1
-2 -2 -1 -1 -1 -1 -1 -1 -0 -1 -1 -1 -0 0 1 1 0 -0 0 1 1 2
-3 -2 -1 -0 -0 -0 -0 -0 -0 -0 -0 0 0 1 1 1 1 1 2 3 4 4
-3 -2 -2 -1 -0 -0 -0 -0 0 0 1 1 2 2 2 3 4 4 5 5 6 7
-2 -2 -2 -1 -1 -0 0 1 2 2 2 2 3 4 5 6 6 7 7 7 7 7
-1 -1 -1 -1 -0 0 2 3 3 4 4 4 5 6 7 7 7 7 7 7 7 7
-0 -0 0 0 1 2 3 4 4 5 5 6 6 6 7 6 6 6 6 7 7 7
1 1 2 2 3 4 4 4 5 5 6 6 6 7 6 6 6 7 7 7 8 8
2 3 3 4 4 5 5 5 5 5 6 6 7 7 8 8 8 8 9 9 9 9
4 4 4 5 5 6 6 6 6 6 6 7 8 9 10 10 10 10 10 10 9 9
4 4 5 5 5 6 6 6 7 7 8 8 10 11 12 11 11 10 10 10 9 9
4 4 4 5 5 6 6 7 7 8 9 10 11 11 11 11 10 10 10 9 9 9
4 4 4 5 5 6 7 7 8 9 10 10 11 11 10 10 10 9 9 9 9 10
4 4 4 5 5 6 7 8 8 9 10 10 10 10 10 10 9 9 10 9 9 9